Time,TemperatureF,DewpointF,PressureIn,WindDirection,WindDirectionDegrees,WindSpeedMPH,WindSpeedGustMPH,Humidity,HourlyPrecipIn,Conditions,Clouds,dailyrainin,SoftwareType,DateUTC
2013-07-01 00:00:00,67.3,42.2,29.93,West,265,0.0,0.0,40,0.00,,,0.00,VWS V14.00,2013-07-01 04:00:00,
2013-07-01 00:01:00,67.1,41.3,29.93,NW,310,2.7,2.7,39,0.00,,,0.00,VWS V14.00,2013-07-01 04:01:00,
2013-07-01 00:02:00,67.1,41.3,29.93,SSE,166,0.0,2.7,39,0.00,,,0.00,VWS V14.00,2013-07-01 04:02:00,
2013-07-01 00:05:00,66.9,41.2,29.93,SSE,165,0.0,0.0,39,0.00,,,0.00,VWS V14.00,2013-07-01 04:05:00,
2013-07-01 00:06:00,66.9,41.2,29.93,SSE,165,0.0,0.0,39,0.00,,,0.00,VWS V14.00,2013-07-01 04:06:00,
2013-07-01 00:11:00,66.9,41.2,29.93,SW,220,0.0,0.0,39,0.00,,,0.00,VWS V14.00,2013-07-01 04:11:00,
2013-07-01 00:16:00,66.6,41.5,29.93,SW,220,0.0,0.0,40,0.00,,,0.00,VWS V14.00,2013-07-01 04:16:00,
2013-07-01 00:21:00,66.6,41.5,29.93,SW,219,0.0,4.0,40,0.00,,,0.00,VWS V14.00,2013-07-01 04:21:00,
2013-07-01 00:27:00,66.2,42.5,29.93,SW,218,0.0,0.0,42,0.00,,,0.00,VWS V14.00,2013-07-01 04:27:00,
2013-07-01 00:32:00,66.0,42.9,29.93,NE,43,3.1,3.1,43,0.00,,,0.00,VWS V14.00,2013-07-01 04:32:00,
2013-07-01 00:38:00,65.7,42.6,29.93,NNE,28,3.6,3.6,43,0.00,,,0.00,VWS V14.00,2013-07-01 04:38:00,
2013-07-01 00:43:00,65.7,42.6,29.93,NE,34,0.0,2.2,43,0.00,,,0.00,VWS V14.00,2013-07-01 04:43:00,
2013-07-01 00:48:00,65.5,42.4,29.93,NE,43,4.0,4.0,43,0.00,,,0.00,VWS V14.00,2013-07-01 04:48:00,
2013-07-01 00:53:00,65.1,42.1,29.93,NE,44,0.0,0.0,43,0.00,,,0.00,VWS V14.00,2013-07-01 04:53:00,
2013-07-01 00:59:00,64.9,41.9,29.93,NE,35,0.0,0.0,43,0.00,,,0.00,VWS V14.00,2013-07-01 04:59:00,
2013-07-01 01:04:00,64.8,41.8,29.93,SW,217,0.0,0.0,43,0.00,,,0.00,VWS V14.00,2013-07-01 05:04:00,
2013-07-01 01:10:00,64.4,41.4,29.93,SSW,209,0.0,0.0,43,0.00,,,0.00,VWS V14.00,2013-07-01 05:10:00,
2013-07-01 01:15:00,64.2,41.3,29.93,NNE,17,3.1,3.1,43,0.00,,,0.00,VWS V14.00,2013-07-01 05:15:00,
2013-07-01 01:21:00,64.0,41.1,29.90,ENE,57,0.0,0.0,43,0.00,,,0.00,VWS V14.00,2013-07-01 05:21:00,
2013-07-01 01:27:00,63.7,40.8,29.90,ENE,61,0.0,0.0,43,0.00,,,0.00,VWS V14.00,2013-07-01 05:27:00,
2013-07-01 01:32:00,63.7,41.4,29.93,NE,41,0.0,2.7,44,0.00,,,0.00,VWS V14.00,2013-07-01 05:32:00,
2013-07-01 01:38:00,63.5,40.6,29.93,NNE,31,3.1,3.1,43,0.00,,,0.00,VWS V14.00,2013-07-01 05:38:00,
2013-07-01 01:44:00,63.5,41.2,29.93,NNE,33,3.6,4.9,44,0.00,,,0.00,VWS V14.00,2013-07-01 05:44:00,
2013-07-01 01:49:00,63.3,41.1,29.93,NNE,23,3.6,3.6,44,0.00,,,0.00,VWS V14.00,2013-07-01 05:49:00,
2013-07-01 01:54:00,63.1,41.5,29.93,NNE,32,4.0,4.0,45,0.00,,,0.00,VWS V14.00,2013-07-01 05:54:00,
2013-07-01 01:59:00,63.0,41.3,29.93,NNE,23,4.0,5.4,45,0.00,,,0.00,VWS V14.00,2013-07-01 05:59:00,
2013-07-01 02:04:00,62.8,41.2,29.93,NNE,20,4.0,4.0,45,0.00,,,0.00,VWS V14.00,2013-07-01 06:04:00,
2013-07-01 02:10:00,62.8,41.2,29.93,NNE,23,2.7,2.7,45,0.00,,,0.00,VWS V14.00,2013-07-01 06:10:00,
2013-07-01 02:16:00,62.4,41.9,29.93,NNE,24,4.0,4.0,47,0.00,,,0.00,VWS V14.00,2013-07-01 06:16:00,
2013-07-01 02:21:00,62.2,41.8,29.93,NE,41,3.1,3.1,47,0.00,,,0.00,VWS V14.00,2013-07-01 06:21:00,
2013-07-01 02:27:00,62.1,41.6,29.93,NNE,24,3.1,3.1,47,0.00,,,0.00,VWS V14.00,2013-07-01 06:27:00,
2013-07-01 02:32:00,61.9,41.5,29.93,NNE,32,3.1,3.1,47,0.00,,,0.00,VWS V14.00,2013-07-01 06:32:00,
2013-07-01 02:37:00,61.7,41.8,29.93,NNE,23,0.0,2.7,48,0.00,,,0.00,VWS V14.00,2013-07-01 06:37:00,
2013-07-01 02:42:00,61.7,41.8,29.93,NNE,23,0.0,2.7,48,0.00,,,0.00,VWS V14.00,2013-07-01 06:42:00,
2013-07-01 02:47:00,61.5,41.7,29.93,NNE,23,2.7,2.7,48,0.00,,,0.00,VWS V14.00,2013-07-01 06:47:00,
2013-07-01 02:52:00,61.2,41.9,29.93,NNE,23,3.1,3.1,49,0.00,,,0.00,VWS V14.00,2013-07-01 06:52:00,
2013-07-01 02:57:00,61.0,41.7,29.93,NNE,28,2.7,3.1,49,0.00,,,0.00,VWS V14.00,2013-07-01 06:57:00,
2013-07-01 03:02:00,61.0,41.7,29.93,NNE,29,2.7,3.1,49,0.00,,,0.00,VWS V14.00,2013-07-01 07:02:00,
2013-07-01 03:08:00,60.8,42.1,29.93,NNE,30,0.0,0.0,50,0.00,,,0.00,VWS V14.00,2013-07-01 07:08:00,
2013-07-01 03:13:00,60.8,42.1,29.93,NNE,30,0.0,0.0,50,0.00,,,0.00,VWS V14.00,2013-07-01 07:13:00,
2013-07-01 03:19:00,60.4,42.8,29.93,NNE,32,2.2,2.2,52,0.00,,,0.00,VWS V14.00,2013-07-01 07:19:00,
2013-07-01 03:24:00,60.3,42.6,29.93,NNE,32,2.2,2.2,52,0.00,,,0.00,VWS V14.00,2013-07-01 07:24:00,
2013-07-01 03:30:00,60.1,42.9,29.93,NNE,33,2.7,2.7,53,0.00,,,0.00,VWS V14.00,2013-07-01 07:30:00,
2013-07-01 03:35:00,60.1,42.9,29.93,NE,46,2.2,2.7,53,0.00,,,0.00,VWS V14.00,2013-07-01 07:35:00,
2013-07-01 03:41:00,59.9,43.2,29.93,NE,44,2.7,3.1,54,0.00,,,0.00,VWS V14.00,2013-07-01 07:41:00,
2013-07-01 03:47:00,59.7,43.5,29.93,NNE,28,4.0,4.0,55,0.00,,,0.00,VWS V14.00,2013-07-01 07:47:00,
2013-07-01 03:52:00,59.7,44.0,29.93,NNE,28,2.7,2.7,56,0.00,,,0.00,VWS V14.00,2013-07-01 07:52:00,
2013-07-01 03:57:00,59.7,44.5,29.93,NE,39,3.6,3.6,57,0.00,,,0.00,VWS V14.00,2013-07-01 07:57:00,
2013-07-01 04:02:00,59.7,44.5,29.90,NE,35,0.0,0.0,57,0.00,,,0.00,VWS V14.00,2013-07-01 08:02:00,
2013-07-01 04:07:00,59.7,44.9,29.90,NE,37,0.0,0.0,58,0.00,,,0.00,VWS V14.00,2013-07-01 08:07:00,
2013-07-01 04:12:00,59.5,44.8,29.90,NE,37,0.0,0.0,58,0.00,,,0.00,VWS V14.00,2013-07-01 08:12:00,
2013-07-01 04:18:00,59.4,44.6,29.90,NE,40,2.2,2.2,58,0.00,,,0.00,VWS V14.00,2013-07-01 08:18:00,
2013-07-01 04:23:00,59.4,45.0,29.90,NE,40,2.2,2.2,59,0.00,,,0.00,VWS V14.00,2013-07-01 08:23:00,
2013-07-01 04:28:00,59.2,45.3,29.93,NE,39,2.2,2.2,60,0.00,,,0.00,VWS V14.00,2013-07-01 08:28:00,
2013-07-01 04:34:00,59.0,45.2,29.93,NE,40,0.0,0.0,60,0.00,,,0.00,VWS V14.00,2013-07-01 08:34:00,
2013-07-01 04:40:00,58.8,45.0,29.93,NE,39,2.7,2.7,60,0.00,,,0.00,VWS V14.00,2013-07-01 08:40:00,
2013-07-01 04:45:00,58.8,45.0,29.93,NE,40,2.2,2.2,60,0.00,,,0.00,VWS V14.00,2013-07-01 08:45:00,
2013-07-01 04:51:00,58.6,45.2,29.93,NE,40,0.0,0.0,61,0.00,,,0.00,VWS V14.00,2013-07-01 08:51:00,
2013-07-01 04:56:00,58.5,45.5,29.93,NE,40,0.0,0.0,62,0.00,,,0.00,VWS V14.00,2013-07-01 08:56:00,
2013-07-01 05:02:00,58.3,45.3,29.93,NE,40,2.2,2.2,62,0.00,,,0.00,VWS V14.00,2013-07-01 09:02:00,
2013-07-01 05:07:00,58.1,45.2,29.93,NE,40,2.2,2.2,62,0.00,,,0.00,VWS V14.00,2013-07-01 09:07:00,
2013-07-01 05:13:00,58.1,45.2,29.93,NE,40,0.0,0.0,62,0.00,,,0.00,VWS V14.00,2013-07-01 09:13:00,
2013-07-01 05:18:00,57.9,45.4,29.93,NE,39,0.0,0.0,63,0.00,,,0.00,VWS V14.00,2013-07-01 09:18:00,
2013-07-01 05:23:00,57.9,45.4,29.93,NE,40,2.2,2.7,63,0.00,,,0.00,VWS V14.00,2013-07-01 09:23:00,
2013-07-01 05:29:00,57.7,45.7,29.93,NNE,33,2.7,2.7,64,0.00,,,0.00,VWS V14.00,2013-07-01 09:29:00,
2013-07-01 05:34:00,57.7,46.1,29.93,NNE,33,0.0,0.0,65,0.00,,,0.00,VWS V14.00,2013-07-01 09:34:00,
2013-07-01 05:39:00,57.7,46.1,29.93,NNE,33,2.7,2.7,65,0.00,,,0.00,VWS V14.00,2013-07-01 09:39:00,
2013-07-01 05:44:00,57.7,46.1,29.93,NNE,33,3.1,3.1,65,0.00,,,0.00,VWS V14.00,2013-07-01 09:44:00,
2013-07-01 05:50:00,57.7,46.5,29.93,NE,42,0.0,3.1,66,0.00,,,0.00,VWS V14.00,2013-07-01 09:50:00,
2013-07-01 05:56:00,57.9,46.6,29.93,NE,44,2.2,2.7,66,0.00,,,0.00,VWS V14.00,2013-07-01 09:56:00,
2013-07-01 06:01:00,57.9,46.6,29.93,NE,44,2.2,2.2,66,0.00,,,0.00,VWS V14.00,2013-07-01 10:01:00,
2013-07-01 06:07:00,57.9,46.6,29.93,NNE,28,2.2,2.2,66,0.00,,,0.00,VWS V14.00,2013-07-01 10:07:00,
2013-07-01 06:12:00,57.9,46.6,29.93,NNE,29,0.0,0.0,66,0.00,,,0.00,VWS V14.00,2013-07-01 10:12:00,
2013-07-01 06:17:00,57.9,46.6,29.93,NNE,29,0.0,0.0,66,0.00,,,0.00,VWS V14.00,2013-07-01 10:17:00,
2013-07-01 06:22:00,57.9,46.6,29.96,NNE,28,2.7,2.7,66,0.00,,,0.00,VWS V14.00,2013-07-01 10:22:00,
2013-07-01 06:27:00,57.9,46.6,29.96,NE,34,3.6,3.6,66,0.00,,,0.00,VWS V14.00,2013-07-01 10:27:00,
2013-07-01 06:33:00,57.7,46.5,29.96,NE,34,3.6,3.6,66,0.00,,,0.00,VWS V14.00,2013-07-01 10:33:00,
2013-07-01 06:38:00,57.7,46.5,29.96,NE,45,2.7,2.7,66,0.00,,,0.00,VWS V14.00,2013-07-01 10:38:00,
2013-07-01 06:44:00,57.7,46.5,29.96,NNE,32,2.7,2.7,66,0.00,,,0.00,VWS V14.00,2013-07-01 10:44:00,
2013-07-01 06:50:00,57.7,46.9,29.96,NE,45,3.6,3.6,67,0.00,,,0.00,VWS V14.00,2013-07-01 10:50:00,
2013-07-01 06:56:00,57.9,47.4,29.96,NE,45,3.6,3.6,68,0.00,,,0.00,VWS V14.00,2013-07-01 10:56:00,
2013-07-01 07:02:00,57.9,47.4,29.96,NNE,22,3.6,3.6,68,0.00,,,0.00,VWS V14.00,2013-07-01 11:02:00,
2013-07-01 07:07:00,57.9,47.0,29.96,NE,36,4.0,4.0,67,0.00,,,0.00,VWS V14.00,2013-07-01 11:07:00,
2013-07-01 07:13:00,57.9,47.0,29.96,NE,36,4.0,4.0,67,0.00,,,0.00,VWS V14.00,2013-07-01 11:13:00,
2013-07-01 07:18:00,58.1,47.2,29.96,NE,36,4.0,4.0,67,0.00,,,0.00,VWS V14.00,2013-07-01 11:18:00,
2013-07-01 07:23:00,58.3,47.4,29.96,NE,36,4.0,4.0,67,0.00,,,0.00,VWS V14.00,2013-07-01 11:23:00,
2013-07-01 07:28:00,58.3,47.4,29.96,NNE,22,3.6,4.0,67,0.00,,,0.00,VWS V14.00,2013-07-01 11:28:00,
2013-07-01 07:34:00,58.5,47.6,29.96,NNE,22,3.6,3.6,67,0.00,,,0.00,VWS V14.00,2013-07-01 11:34:00,
2013-07-01 07:39:00,58.6,47.3,29.96,NNE,25,4.0,4.0,66,0.00,,,0.00,VWS V14.00,2013-07-01 11:39:00,
2013-07-01 07:45:00,58.8,47.5,29.96,NNE,25,4.0,4.0,66,0.00,,,0.00,VWS V14.00,2013-07-01 11:45:00,
2013-07-01 07:50:00,59.0,47.7,29.96,NNE,25,4.0,4.0,66,0.00,,,0.00,VWS V14.00,2013-07-01 11:50:00,
2013-07-01 07:56:00,59.2,47.8,29.96,NNE,25,4.0,4.0,66,0.00,,,0.00,VWS V14.00,2013-07-01 11:56:00,
2013-07-01 08:02:00,59.4,48.0,29.96,NE,35,3.1,3.1,66,0.00,,,0.00,VWS V14.00,2013-07-01 12:02:00,
2013-07-01 08:08:00,59.5,48.2,29.93,NE,34,3.6,3.6,66,0.00,,,0.00,VWS V14.00,2013-07-01 12:08:00,
2013-07-01 08:13:00,59.7,48.4,29.93,NE,34,3.6,3.6,66,0.00,,,0.00,VWS V14.00,2013-07-01 12:13:00,
2013-07-01 08:19:00,60.1,48.7,29.96,NE,37,0.0,3.6,66,0.00,,,0.00,VWS V14.00,2013-07-01 12:19:00,
2013-07-01 08:24:00,60.4,49.0,29.96,NE,38,2.7,2.7,66,0.00,,,0.00,VWS V14.00,2013-07-01 12:24:00,
2013-07-01 08:29:00,60.6,49.2,29.96,North,1,0.0,0.0,66,0.00,,,0.00,VWS V14.00,2013-07-01 12:29:00,
2013-07-01 08:35:00,60.6,49.2,29.96,NNE,32,3.1,3.1,66,0.00,,,0.00,VWS V14.00,2013-07-01 12:35:00,
2013-07-01 08:40:00,61.2,49.3,29.96,NNE,26,3.1,3.1,65,0.00,,,0.00,VWS V14.00,2013-07-01 12:40:00,
2013-07-01 08:46:00,61.5,49.7,29.96,NNE,23,5.4,5.4,65,0.00,,,0.00,VWS V14.00,2013-07-01 12:46:00,
2013-07-01 08:51:00,61.7,49.8,29.96,NNE,31,4.9,4.9,65,0.00,,,0.00,VWS V14.00,2013-07-01 12:51:00,
2013-07-01 08:56:00,62.1,50.2,29.96,NNE,24,6.3,6.3,65,0.00,,,0.00,VWS V14.00,2013-07-01 12:56:00,
2013-07-01 09:01:00,62.2,49.9,29.96,NNE,21,3.1,3.1,64,0.00,,,0.00,VWS V14.00,2013-07-01 13:01:00,
2013-07-01 09:07:00,62.6,49.8,29.96,NE,37,2.7,5.4,63,0.00,,,0.00,VWS V14.00,2013-07-01 13:07:00,
2013-07-01 09:13:00,63.0,50.2,29.96,North,5,4.0,4.0,63,0.00,,,0.00,VWS V14.00,2013-07-01 13:13:00,
2013-07-01 09:18:00,63.5,50.3,29.96,ENE,77,5.4,5.4,62,0.00,,,0.00,VWS V14.00,2013-07-01 13:18:00,
2013-07-01 09:23:00,63.7,50.0,29.96,NE,35,3.1,3.1,61,0.00,,,0.00,VWS V14.00,2013-07-01 13:23:00,
2013-07-01 09:29:00,64.0,50.3,29.96,North,357,4.9,4.9,61,0.00,,,0.00,VWS V14.00,2013-07-01 13:29:00,
2013-07-01 09:35:00,64.4,50.7,29.96,NE,56,4.0,4.5,61,0.00,,,0.00,VWS V14.00,2013-07-01 13:35:00,
2013-07-01 09:40:00,64.6,50.4,29.96,NNE,28,3.6,4.0,60,0.00,,,0.00,VWS V14.00,2013-07-01 13:40:00,
2013-07-01 09:46:00,64.8,50.1,29.96,NE,42,2.7,4.0,59,0.00,,,0.00,VWS V14.00,2013-07-01 13:46:00,
2013-07-01 09:51:00,64.9,50.3,29.96,NE,42,2.7,2.7,59,0.00,,,0.00,VWS V14.00,2013-07-01 13:51:00,
2013-07-01 09:57:00,65.1,50.5,29.96,NE,42,2.7,2.7,59,0.00,,,0.00,VWS V14.00,2013-07-01 13:57:00,
2013-07-01 10:02:00,65.5,50.8,29.98,NNE,31,7.6,7.6,59,0.00,,,0.00,VWS V14.00,2013-07-01 14:02:00,
2013-07-01 10:07:00,65.7,51.0,29.98,NNE,12,3.6,3.6,59,0.00,,,0.00,VWS V14.00,2013-07-01 14:07:00,
2013-07-01 10:13:00,66.0,51.3,29.98,NNE,32,5.4,5.4,59,0.00,,,0.00,VWS V14.00,2013-07-01 14:13:00,
2013-07-01 10:18:00,66.2,51.5,29.98,NNE,32,5.4,5.4,59,0.00,,,0.00,VWS V14.00,2013-07-01 14:18:00,
2013-07-01 10:24:00,66.6,51.3,29.98,NNE,13,2.7,2.7,58,0.00,,,0.00,VWS V14.00,2013-07-01 14:24:00,
2013-07-01 10:29:00,66.9,52.1,29.98,NNE,13,2.7,2.7,59,0.00,,,0.00,VWS V14.00,2013-07-01 14:29:00,
2013-07-01 10:34:00,67.3,52.5,29.98,NE,34,5.4,5.4,59,0.00,,,0.00,VWS V14.00,2013-07-01 14:34:00,
2013-07-01 10:40:00,67.8,52.5,29.98,NE,45,2.7,2.7,58,0.00,,,0.00,VWS V14.00,2013-07-01 14:40:00,
2013-07-01 10:45:00,68.2,52.4,29.98,NE,45,2.7,2.7,57,0.00,,,0.00,VWS V14.00,2013-07-01 14:45:00,
2013-07-01 10:51:00,68.5,52.7,29.98,NE,45,2.7,2.7,57,0.00,,,0.00,VWS V14.00,2013-07-01 14:51:00,
2013-07-01 10:57:00,69.1,52.7,29.98,NE,45,2.7,2.7,56,0.00,,,0.00,VWS V14.00,2013-07-01 14:57:00,
2013-07-01 11:02:00,69.3,51.9,29.98,NNE,12,2.7,2.7,54,0.00,,,0.00,VWS V14.00,2013-07-01 15:02:00,
2013-07-01 11:07:00,69.6,52.3,29.98,NNE,12,2.7,2.7,54,0.00,,,0.00,VWS V14.00,2013-07-01 15:07:00,
2013-07-01 11:12:00,69.8,52.4,29.98,NNE,12,2.7,2.7,54,0.00,,,0.00,VWS V14.00,2013-07-01 15:12:00,
2013-07-01 11:17:00,70.2,52.2,29.98,NNE,12,2.7,2.7,53,0.00,,,0.00,VWS V14.00,2013-07-01 15:17:00,
2013-07-01 11:22:00,70.5,52.6,29.98,NNE,12,2.7,2.7,53,0.00,,,0.00,VWS V14.00,2013-07-01 15:22:00,
2013-07-01 11:27:00,70.9,52.9,29.98,NNE,12,2.7,2.7,53,0.00,,,0.00,VWS V14.00,2013-07-01 15:27:00,
2013-07-01 11:33:00,71.2,50.0,29.98,WSW,252,3.1,3.1,47,0.00,,,0.00,VWS V14.00,2013-07-01 15:33:00,
2013-07-01 11:38:00,72.0,48.9,29.98,SSE,166,2.7,2.7,44,0.00,,,0.00,VWS V14.00,2013-07-01 15:38:00,
2013-07-01 11:43:00,72.3,48.0,29.98,SSE,166,2.7,2.7,42,0.00,,,0.00,VWS V14.00,2013-07-01 15:43:00,
2013-07-01 11:49:00,72.5,48.1,29.98,SSE,166,2.7,2.7,42,0.00,,,0.00,VWS V14.00,2013-07-01 15:49:00,
2013-07-01 11:55:00,72.7,47.7,29.98,SSE,166,2.7,2.7,41,0.00,,,0.00,VWS V14.00,2013-07-01 15:55:00,
2013-07-01 12:01:00,72.7,47.0,29.98,SSW,210,3.6,3.6,40,0.00,,,0.00,VWS V14.00,2013-07-01 16:01:00,
2013-07-01 12:06:00,72.7,48.3,29.98,SSW,210,3.6,3.6,42,0.00,,,0.00,VWS V14.00,2013-07-01 16:06:00,
2013-07-01 12:11:00,72.7,47.7,29.98,WNW,282,2.2,3.6,41,0.00,,,0.00,VWS V14.00,2013-07-01 16:11:00,
2013-07-01 12:17:00,73.0,49.2,29.98,ENE,64,5.8,5.8,43,0.00,,,0.00,VWS V14.00,2013-07-01 16:17:00,
2013-07-01 12:23:00,73.4,48.9,29.98,ENE,64,5.8,5.8,42,0.00,,,0.00,VWS V14.00,2013-07-01 16:23:00,
2013-07-01 12:28:00,73.6,49.1,29.98,ENE,57,3.6,3.6,42,0.00,,,0.00,VWS V14.00,2013-07-01 16:28:00,
2013-07-01 12:33:00,73.8,49.3,29.98,ENE,57,3.6,3.6,42,0.00,,,0.00,VWS V14.00,2013-07-01 16:33:00,
2013-07-01 12:39:00,73.9,48.8,29.98,NNE,19,3.6,3.6,41,0.00,,,0.00,VWS V14.00,2013-07-01 16:39:00,
2013-07-01 12:44:00,74.5,49.3,29.98,NNE,19,3.6,3.6,41,0.00,,,0.00,VWS V14.00,2013-07-01 16:44:00,
2013-07-01 12:49:00,74.8,47.6,29.98,NNE,19,3.6,3.6,38,0.00,,,0.00,VWS V14.00,2013-07-01 16:49:00,
2013-07-01 12:54:00,75.2,47.9,29.98,NNE,19,3.6,3.6,38,0.00,,,0.00,VWS V14.00,2013-07-01 16:54:00,
2013-07-01 12:59:00,76.1,48.7,29.98,NNE,19,3.6,3.6,38,0.00,,,0.00,VWS V14.00,2013-07-01 16:59:00,
2013-07-01 13:04:00,76.3,48.1,29.98,NNE,19,3.6,3.6,37,0.00,,,0.00,VWS V14.00,2013-07-01 17:04:00,
2013-07-01 13:09:00,76.8,50.7,29.98,NNE,19,3.6,3.6,40,0.00,,,0.00,VWS V14.00,2013-07-01 17:09:00,
2013-07-01 13:14:00,77.2,47.4,29.98,NNE,19,3.6,3.6,35,0.00,,,0.00,VWS V14.00,2013-07-01 17:14:00,
2013-07-01 13:20:00,77.5,49.2,29.98,NNE,19,3.6,3.6,37,0.00,,,0.00,VWS V14.00,2013-07-01 17:20:00,
2013-07-01 13:26:00,77.5,47.8,29.98,NNE,19,3.6,3.6,35,0.00,,,0.00,VWS V14.00,2013-07-01 17:26:00,
2013-07-01 13:32:00,77.9,48.8,29.98,NNE,19,3.6,3.6,36,0.00,,,0.00,VWS V14.00,2013-07-01 17:32:00,
2013-07-01 13:37:00,77.9,49.6,29.98,ENE,74,0.0,0.0,37,0.00,,,0.00,VWS V14.00,2013-07-01 17:37:00,
2013-07-01 13:42:00,78.1,47.5,29.98,ENE,74,0.0,0.0,34,0.00,,,0.00,VWS V14.00,2013-07-01 17:42:00,
2013-07-01 13:47:00,78.1,47.5,29.98,ENE,74,0.0,0.0,34,0.00,,,0.00,VWS V14.00,2013-07-01 17:47:00,
2013-07-01 13:52:00,77.7,47.9,29.98,ENE,74,0.0,0.0,35,0.00,,,0.00,VWS V14.00,2013-07-01 17:52:00,
2013-07-01 13:58:00,77.9,50.3,29.98,ENE,74,0.0,0.0,38,0.00,,,0.00,VWS V14.00,2013-07-01 17:58:00,
2013-07-01 14:03:00,78.3,50.6,29.98,ENE,74,0.0,0.0,38,0.00,,,0.00,VWS V14.00,2013-07-01 18:03:00,
2013-07-01 14:09:00,79.2,49.2,29.98,NNE,16,5.4,5.4,35,0.00,,,0.00,VWS V14.00,2013-07-01 18:09:00,
2013-07-01 14:14:00,79.2,49.2,29.98,NNE,16,5.4,5.4,35,0.00,,,0.00,VWS V14.00,2013-07-01 18:14:00,
2013-07-01 14:20:00,79.7,46.4,29.98,South,188,2.7,2.7,31,0.00,,,0.00,VWS V14.00,2013-07-01 18:20:00,
2013-07-01 14:25:00,79.7,46.4,29.98,South,188,2.7,2.7,31,0.00,,,0.00,VWS V14.00,2013-07-01 18:25:00,
2013-07-01 14:31:00,78.4,45.3,29.98,NE,50,4.0,4.0,31,0.00,,,0.00,VWS V14.00,2013-07-01 18:31:00,
2013-07-01 14:37:00,78.1,45.0,29.98,NE,50,4.0,4.0,31,0.00,,,0.00,VWS V14.00,2013-07-01 18:37:00,
2013-07-01 14:42:00,77.5,45.4,29.98,NE,50,4.0,4.0,32,0.00,,,0.00,VWS V14.00,2013-07-01 18:42:00,
2013-07-01 14:48:00,77.9,46.5,29.98,South,177,8.3,8.3,33,0.00,,,0.00,VWS V14.00,2013-07-01 18:48:00,
2013-07-01 14:53:00,77.9,45.7,29.98,South,177,8.3,8.3,32,0.00,,,0.00,VWS V14.00,2013-07-01 18:53:00,
2013-07-01 14:58:00,77.5,45.4,29.98,NNE,21,10.1,10.1,32,0.00,,,0.00,VWS V14.00,2013-07-01 18:58:00,
2013-07-01 15:03:00,77.2,45.9,29.98,East,85,6.3,6.3,33,0.00,,,0.00,VWS V14.00,2013-07-01 19:03:00,
2013-07-01 15:08:00,77.0,45.7,29.98,ESE,105,5.4,5.4,33,0.00,,,0.00,VWS V14.00,2013-07-01 19:08:00,
2013-07-01 15:13:00,77.2,45.9,29.98,ENE,57,3.6,3.6,33,0.00,,,0.00,VWS V14.00,2013-07-01 19:13:00,
2013-07-01 15:19:00,77.2,46.7,29.98,SSW,204,2.7,2.7,34,0.00,,,0.00,VWS V14.00,2013-07-01 19:19:00,
2013-07-01 15:25:00,77.4,48.3,29.98,SSW,204,2.7,2.7,36,0.00,,,0.00,VWS V14.00,2013-07-01 19:25:00,
2013-07-01 15:31:00,78.1,47.5,29.98,NE,44,8.7,8.7,34,0.00,,,0.00,VWS V14.00,2013-07-01 19:31:00,
2013-07-01 15:36:00,78.4,47.0,29.98,SSW,197,3.6,3.6,33,0.00,,,0.00,VWS V14.00,2013-07-01 19:36:00,
2013-07-01 15:42:00,79.3,47.8,29.98,NNE,30,6.3,6.3,33,0.00,,,0.00,VWS V14.00,2013-07-01 19:42:00,
2013-07-01 15:47:00,79.9,47.4,29.98,SW,226,5.4,5.4,32,0.00,,,0.00,VWS V14.00,2013-07-01 19:47:00,
2013-07-01 15:53:00,79.7,46.4,29.98,SW,226,5.4,5.4,31,0.00,,,0.00,VWS V14.00,2013-07-01 19:53:00,
2013-07-01 15:59:00,79.7,45.6,29.98,SW,226,5.4,5.4,30,0.00,,,0.00,VWS V14.00,2013-07-01 19:59:00,
2013-07-01 16:05:00,79.9,46.6,29.98,SW,226,5.4,5.4,31,0.00,,,0.00,VWS V14.00,2013-07-01 20:05:00,
2013-07-01 16:10:00,80.1,46.7,29.98,SW,226,5.4,5.4,31,0.00,,,0.00,VWS V14.00,2013-07-01 20:10:00,
2013-07-01 16:15:00,80.6,47.2,29.98,SW,222,2.7,3.6,31,0.00,,,0.00,VWS V14.00,2013-07-01 20:15:00,
2013-07-01 16:21:00,81.0,46.6,29.98,West,263,3.6,3.6,30,0.00,,,0.00,VWS V14.00,2013-07-01 20:21:00,
2013-07-01 16:26:00,80.8,47.4,29.98,West,263,3.6,3.6,31,0.00,,,0.00,VWS V14.00,2013-07-01 20:26:00,
2013-07-01 16:32:00,80.6,47.2,29.98,West,263,3.6,3.6,31,0.00,,,0.00,VWS V14.00,2013-07-01 20:32:00,
2013-07-01 16:38:00,81.3,47.8,29.98,NE,38,4.9,4.9,31,0.00,,,0.00,VWS V14.00,2013-07-01 20:38:00,
2013-07-01 16:44:00,82.0,49.3,29.98,NNE,20,2.7,2.7,32,0.00,,,0.00,VWS V14.00,2013-07-01 20:44:00,
2013-07-01 16:49:00,82.4,47.9,29.98,NE,41,0.0,7.6,30,0.00,,,0.00,VWS V14.00,2013-07-01 20:49:00,
2013-07-01 16:55:00,82.6,48.0,29.98,NNE,17,3.6,4.9,30,0.00,,,0.00,VWS V14.00,2013-07-01 20:55:00,
2013-07-01 17:00:00,82.6,48.0,29.98,ESE,118,5.4,5.4,30,0.00,,,0.00,VWS V14.00,2013-07-01 21:00:00,
2013-07-01 17:06:00,82.0,47.6,29.98,SSE,151,3.1,4.0,30,0.00,,,0.00,VWS V14.00,2013-07-01 21:06:00,
2013-07-01 17:12:00,82.0,48.5,29.98,South,172,4.9,4.9,31,0.00,,,0.00,VWS V14.00,2013-07-01 21:12:00,
2013-07-01 17:18:00,82.2,48.6,29.98,SSE,159,3.6,3.6,31,0.00,,,0.00,VWS V14.00,2013-07-01 21:18:00,
2013-07-01 17:24:00,82.6,47.1,29.98,NNE,17,4.0,6.3,29,0.00,,,0.00,VWS V14.00,2013-07-01 21:24:00,
2013-07-01 17:29:00,82.8,47.3,29.98,ENE,68,3.1,3.1,29,0.00,,,0.00,VWS V14.00,2013-07-01 21:29:00,
2013-07-01 17:35:00,82.9,47.5,29.98,South,173,0.0,2.2,29,0.00,,,0.00,VWS V14.00,2013-07-01 21:35:00,
2013-07-01 17:40:00,82.6,47.1,29.98,SW,217,4.9,4.9,29,0.00,,,0.00,VWS V14.00,2013-07-01 21:40:00,
2013-07-01 17:45:00,81.9,46.5,29.98,NNW,348,5.4,5.4,29,0.00,,,0.00,VWS V14.00,2013-07-01 21:45:00,
2013-07-01 17:50:00,81.3,46.1,29.98,ENE,74,11.0,11.0,29,0.00,,,0.00,VWS V14.00,2013-07-01 21:50:00,
2013-07-01 17:56:00,80.8,45.6,29.98,SSW,208,5.4,5.4,29,0.00,,,0.00,VWS V14.00,2013-07-01 21:56:00,
2013-07-01 18:02:00,79.5,45.4,29.98,SE,132,5.8,5.8,30,0.00,,,0.00,VWS V14.00,2013-07-01 22:02:00,
2013-07-01 18:08:00,79.2,46.0,29.98,West,276,4.0,4.0,31,0.00,,,0.00,VWS V14.00,2013-07-01 22:08:00,
2013-07-01 18:13:00,79.0,44.9,29.98,SSE,159,4.0,4.0,30,0.00,,,0.00,VWS V14.00,2013-07-01 22:13:00,
2013-07-01 18:18:00,78.8,45.6,29.98,East,96,3.6,3.6,31,0.00,,,0.00,VWS V14.00,2013-07-01 22:18:00,
2013-07-01 18:23:00,79.0,45.8,29.98,SW,220,2.7,2.7,31,0.00,,,0.00,VWS V14.00,2013-07-01 22:23:00,
2013-07-01 18:28:00,79.3,46.1,29.98,SSW,212,3.1,3.1,31,0.00,,,0.00,VWS V14.00,2013-07-01 22:28:00,
2013-07-01 18:33:00,79.7,46.4,29.98,NNE,20,5.8,5.8,31,0.00,,,0.00,VWS V14.00,2013-07-01 22:33:00,
2013-07-01 18:38:00,79.7,47.3,29.98,SSE,147,3.1,3.1,32,0.00,,,0.00,VWS V14.00,2013-07-01 22:38:00,
2013-07-01 18:44:00,79.7,46.4,29.98,West,266,3.1,3.1,31,0.00,,,0.00,VWS V14.00,2013-07-01 22:44:00,
2013-07-01 18:49:00,79.5,46.3,29.98,NNE,12,3.6,3.6,31,0.00,,,0.00,VWS V14.00,2013-07-01 22:49:00,
2013-07-01 18:54:00,79.7,46.4,29.98,West,272,4.0,4.0,31,0.00,,,0.00,VWS V14.00,2013-07-01 22:54:00,
2013-07-01 18:59:00,79.7,47.3,29.98,SE,127,2.2,2.2,32,0.00,,,0.00,VWS V14.00,2013-07-01 22:59:00,
2013-07-01 19:04:00,79.7,46.4,29.98,WSW,252,4.9,4.9,31,0.00,,,0.00,VWS V14.00,2013-07-01 23:04:00,
2013-07-01 19:10:00,79.3,46.1,29.98,SSW,205,2.7,2.7,31,0.00,,,0.00,VWS V14.00,2013-07-01 23:10:00,
2013-07-01 19:16:00,79.2,46.8,29.98,SW,225,2.7,2.7,32,0.00,,,0.00,VWS V14.00,2013-07-01 23:16:00,
2013-07-01 19:22:00,78.6,46.3,29.98,SSE,165,2.7,2.7,32,0.00,,,0.00,VWS V14.00,2013-07-01 23:22:00,
2013-07-01 19:27:00,78.6,46.3,29.98,SW,229,3.1,3.1,32,0.00,,,0.00,VWS V14.00,2013-07-01 23:27:00,
2013-07-01 19:33:00,78.4,47.0,29.98,SSW,211,0.0,2.2,33,0.00,,,0.00,VWS V14.00,2013-07-01 23:33:00,
2013-07-01 19:38:00,78.4,47.0,29.98,South,182,0.0,0.0,33,0.00,,,0.00,VWS V14.00,2013-07-01 23:38:00,
2013-07-01 19:44:00,78.6,47.1,29.98,SSW,205,2.2,2.2,33,0.00,,,0.00,VWS V14.00,2013-07-01 23:44:00,
2013-07-01 19:49:00,78.1,46.7,29.98,SW,228,3.1,4.0,33,0.00,,,0.00,VWS V14.00,2013-07-01 23:49:00,
2013-07-01 19:54:00,77.7,45.5,29.98,WSW,258,3.6,3.6,32,0.00,,,0.00,VWS V14.00,2013-07-01 23:54:00,
2013-07-01 19:59:00,77.4,46.0,29.98,NE,37,4.9,4.9,33,0.00,,,0.00,VWS V14.00,2013-07-01 23:59:00,
2013-07-01 20:04:00,77.0,45.7,29.98,WSW,251,0.0,0.0,33,0.00,,,0.00,VWS V14.00,2013-07-02 00:04:00,
2013-07-01 20:10:00,76.6,46.2,29.98,SSE,149,3.1,3.1,34,0.00,,,0.00,VWS V14.00,2013-07-02 00:10:00,
2013-07-01 20:15:00,76.1,45.7,29.98,South,189,3.1,3.1,34,0.00,,,0.00,VWS V14.00,2013-07-02 00:15:00,
2013-07-01 20:21:00,75.7,46.2,29.98,South,189,3.1,3.1,35,0.00,,,0.00,VWS V14.00,2013-07-02 00:21:00,
2013-07-01 20:27:00,75.4,45.9,29.98,WSW,253,2.2,2.2,35,0.00,,,0.00,VWS V14.00,2013-07-02 00:27:00,
2013-07-01 20:32:00,74.8,46.1,29.98,South,190,0.0,0.0,36,0.00,,,0.00,VWS V14.00,2013-07-02 00:32:00,
2013-07-01 20:37:00,74.7,46.0,29.98,SW,217,0.0,2.7,36,0.00,,,0.00,VWS V14.00,2013-07-02 00:37:00,
2013-07-01 20:42:00,74.1,46.2,29.98,WNW,290,0.0,0.0,37,0.00,,,0.00,VWS V14.00,2013-07-02 00:42:00,
2013-07-01 20:47:00,73.9,46.8,29.98,SW,225,0.0,0.0,38,0.00,,,0.00,VWS V14.00,2013-07-02 00:47:00,
2013-07-01 20:53:00,73.4,47.0,29.98,West,263,0.0,0.0,39,0.00,,,0.00,VWS V14.00,2013-07-02 00:53:00,
2013-07-01 20:58:00,73.0,47.3,29.98,West,263,0.0,0.0,40,0.00,,,0.00,VWS V14.00,2013-07-02 00:58:00,
2013-07-01 21:03:00,72.7,47.7,29.98,West,263,0.0,0.0,41,0.00,,,0.00,VWS V14.00,2013-07-02 01:03:00,
2013-07-01 21:08:00,72.5,47.5,29.98,West,263,0.0,0.0,41,0.00,,,0.00,VWS V14.00,2013-07-02 01:08:00,
2013-07-01 21:13:00,72.1,47.2,29.98,West,263,0.0,0.0,41,0.00,,,0.00,VWS V14.00,2013-07-02 01:13:00,
2013-07-01 21:19:00,71.8,47.5,29.98,West,263,0.0,0.0,42,0.00,,,0.00,VWS V14.00,2013-07-02 01:19:00,
2013-07-01 21:24:00,71.2,47.0,29.98,West,263,0.0,0.0,42,0.00,,,0.00,VWS V14.00,2013-07-02 01:24:00,
2013-07-01 21:29:00,71.1,47.5,29.98,West,263,0.0,0.0,43,0.00,,,0.00,VWS V14.00,2013-07-02 01:29:00,
2013-07-01 21:34:00,70.7,47.1,29.98,West,263,0.0,0.0,43,0.00,,,0.00,VWS V14.00,2013-07-02 01:34:00,
2013-07-01 21:39:00,70.5,47.0,29.98,West,263,0.0,0.0,43,0.00,,,0.00,VWS V14.00,2013-07-02 01:39:00,
2013-07-01 21:44:00,70.2,46.6,29.98,SSW,213,0.0,0.0,43,0.00,,,0.00,VWS V14.00,2013-07-02 01:44:00,
2013-07-01 21:50:00,69.8,46.3,29.98,SSW,213,0.0,0.0,43,0.00,,,0.00,VWS V14.00,2013-07-02 01:50:00,
2013-07-01 21:56:00,69.4,46.0,29.98,SSW,213,0.0,0.0,43,0.00,,,0.00,VWS V14.00,2013-07-02 01:56:00,
2013-07-01 22:02:00,69.3,46.4,29.98,SSW,213,0.0,0.0,44,0.00,,,0.00,VWS V14.00,2013-07-02 02:02:00,
2013-07-01 22:07:00,68.9,46.1,30.01,SSW,213,0.0,0.0,44,0.00,,,0.00,VWS V14.00,2013-07-02 02:07:00,
2013-07-01 22:12:00,68.5,45.8,30.01,SSW,213,0.0,0.0,44,0.00,,,0.00,VWS V14.00,2013-07-02 02:12:00,
2013-07-01 22:17:00,68.4,45.6,30.01,SSW,213,0.0,0.0,44,0.00,,,0.00,VWS V14.00,2013-07-02 02:17:00,
2013-07-01 22:23:00,68.2,45.5,30.01,SSW,213,0.0,0.0,44,0.00,,,0.00,VWS V14.00,2013-07-02 02:23:00,
2013-07-01 22:28:00,68.0,45.3,30.01,SSW,213,0.0,0.0,44,0.00,,,0.00,VWS V14.00,2013-07-02 02:28:00,
2013-07-01 22:34:00,67.6,45.6,30.01,SSW,213,0.0,0.0,45,0.00,,,0.00,VWS V14.00,2013-07-02 02:34:00,
2013-07-01 22:39:00,67.3,45.2,30.01,SSW,213,0.0,0.0,45,0.00,,,0.00,VWS V14.00,2013-07-02 02:39:00,
2013-07-01 22:44:00,67.1,44.5,30.01,SSW,213,0.0,0.0,44,0.00,,,0.00,VWS V14.00,2013-07-02 02:44:00,
2013-07-01 22:50:00,66.9,44.3,30.01,SSW,213,0.0,0.0,44,0.00,,,0.00,VWS V14.00,2013-07-02 02:50:00,
2013-07-01 22:55:00,66.7,44.2,30.01,SSW,213,0.0,0.0,44,0.00,,,0.00,VWS V14.00,2013-07-02 02:55:00,
2013-07-01 23:00:00,66.6,44.0,30.01,SSW,213,0.0,0.0,44,0.00,,,0.00,VWS V14.00,2013-07-02 03:00:00,
2013-07-01 23:05:00,66.4,43.8,30.01,SSW,213,0.0,0.0,44,0.00,,,0.00,VWS V14.00,2013-07-02 03:05:00,
2013-07-01 23:11:00,66.2,43.7,30.01,SSW,213,0.0,0.0,44,0.00,,,0.00,VWS V14.00,2013-07-02 03:11:00,
2013-07-01 23:16:00,66.0,43.5,30.01,WNW,295,0.0,0.0,44,0.00,,,0.00,VWS V14.00,2013-07-02 03:16:00,
2013-07-01 23:21:00,65.8,43.9,30.01,WSW,241,3.1,3.1,45,0.00,,,0.00,VWS V14.00,2013-07-02 03:21:00,
2013-07-01 23:26:00,65.7,43.8,30.01,West,273,4.0,4.0,45,0.00,,,0.00,VWS V14.00,2013-07-02 03:26:00,
2013-07-01 23:31:00,65.5,43.0,30.01,West,273,4.0,4.0,44,0.00,,,0.00,VWS V14.00,2013-07-02 03:31:00,
2013-07-01 23:37:00,65.3,42.8,30.01,WNW,282,0.0,0.0,44,0.00,,,0.00,VWS V14.00,2013-07-02 03:37:00,
2013-07-01 23:42:00,65.1,42.1,30.01,ENE,78,3.6,3.6,43,0.00,,,0.00,VWS V14.00,2013-07-02 03:42:00,
2013-07-01 23:47:00,65.1,42.1,30.01,West,273,0.0,0.0,43,0.00,,,0.00,VWS V14.00,2013-07-02 03:47:00,
2013-07-01 23:52:00,64.9,42.5,30.01,West,263,2.7,3.6,44,0.00,,,0.00,VWS V14.00,2013-07-02 03:52:00,
2013-07-01 23:58:00,64.6,41.6,30.01,SSW,208,2.2,2.2,43,0.00,,,0.00,VWS V14.00,2013-07-02 03:58:00,